Location: Newark
(44.3248°N, 23.7839°E)
Time: 20:00:28
(UTC+00:00)

CUTE 1.7 + AOD 2 - Visible Passes

Search period start: 22 April 2024 00:00
Search period end: 02 May 2024 00:00
Orbit: 571 x 588 km, 97.7° (Epoch: 21 April)

Date Brightness Start Highest point End Pass type
(mag) Time Alt. Az. Time Alt. Az. Time Alt. Az.
22 Apr ? 01:39:38 10° NNE 01:43:35 46° E 01:47:04 13° S visible
23 Apr ? 01:44:23 10° NNE 01:48:23 53° E 01:52:01 12° S visible
24 Apr ? 01:49:06 10° NNE 01:53:09 60° E 01:56:57 11° S visible
25 Apr ? 01:53:49 10° NNE 01:57:54 68° ESE 02:01:50 11° S visible
26 Apr ? 01:58:31 10° NNE 02:02:37 78° ESE 02:06:40 10° S visible
27 Apr ? 02:03:12 10° NNE 02:07:17 87° E 02:11:22 10° SSW visible
28 Apr ? 02:07:52 10° N 02:11:57 83° WNW 02:16:01 10° SSW visible
29 Apr ? 02:12:30 10° N 02:16:35 73° WNW 02:20:38 10° SSW visible
30 Apr ? 00:44:18 10° ENE 00:45:28 11° E 00:46:37 10° ESE visible
30 Apr ? 02:17:08 10° N 02:21:11 65° WNW 02:25:12 10° SSW visible
01 May ? 00:48:20 10° ENE 00:50:06 12° E 00:51:51 10° ESE visible
01 May ? 02:21:45 10° N 02:25:46 57° WNW 02:29:44 10° SSW visible
